SAS50J ENGM-ENTC

Flight info

Callsign SAS50J
Flight time 1h 31m
Altitude 37000
Route RIBBE DCT GIGNI DCT SOMUB DCT PENNO DCT ATWEG
Aircraft A319/M-SDE3FGIJ1RWXY/LB1

Departure

Time 2026-05-04 14:44
Airport Oslo-Gardermoen International Airport (ENGM)

Arrival

Time 2026-05-04 16:15
Airport Tromsø Airport (ENTC)
Time Latitude Longitude Altitude Speed Heading
2026-05-04 14:28 60.19520 11.10144 685 ft 0 kts 264°
2026-05-04 14:35 60.19521 11.10162 685 ft 4 kts 264°
2026-05-04 14:35 60.19524 11.10216 676 ft 4 kts 264°
2026-05-04 14:35 60.19526 11.10270 680 ft 4 kts 264°
2026-05-04 14:35 60.19528 11.10312 681 ft 4 kts 257°
2026-05-04 14:36 60.19538 11.10362 679 ft 4 kts 241°
2026-05-04 14:36 60.19541 11.10375 681 ft 0 kts 241°
2026-05-04 14:38 60.19541 11.10374 681 ft 0 kts 242°
2026-05-04 14:38 60.19542 11.10370 680 ft 0 kts 266°
2026-05-04 14:38 60.19548 11.10362 685 ft 2 kts 318°
2026-05-04 14:38 60.19569 11.10374 685 ft 6 kts 25°
2026-05-04 14:39 60.19621 11.10421 684 ft 9 kts 19°
2026-05-04 14:39 60.19695 11.10464 684 ft 13 kts 16°
2026-05-04 14:39 60.19791 11.10520 681 ft 16 kts 16°
2026-05-04 14:40 60.19947 11.10691 684 ft 11 kts 93°
2026-05-04 14:40 60.19925 11.10850 684 ft 13 kts 107°
2026-05-04 14:40 60.19900 11.11033 684 ft 14 kts 105°
2026-05-04 14:40 60.19871 11.11238 683 ft 16 kts 106°
2026-05-04 14:41 60.19842 11.11459 683 ft 13 kts 93°
2026-05-04 14:41 60.19891 11.11553 685 ft 10 kts 17°
2026-05-04 14:41 60.20037 11.11638 683 ft 12 kts 16°
2026-05-04 14:42 60.20172 11.11800 685 ft 13 kts 91°
2026-05-04 14:42 60.20147 11.11986 686 ft 13 kts 106°
2026-05-04 14:42 60.20123 11.12149 686 ft 13 kts 107°
2026-05-04 14:43 60.20062 11.12215 690 ft 13 kts 198°
2026-05-04 14:43 60.19840 11.12086 687 ft 63 kts 196°
2026-05-04 14:43 60.19234 11.11737 682 ft 118 kts 196°
2026-05-04 14:43 60.18276 11.11184 688 ft 162 kts 196°
2026-05-04 14:44 60.17179 11.10586 1219 ft 163 kts 200°
2026-05-04 14:44 60.16064 11.09967 1745 ft 173 kts 201°
2026-05-04 14:44 60.14830 11.09294 2023 ft 197 kts 200°
2026-05-04 14:44 60.13357 11.09326 2400 ft 233 kts 168°
2026-05-04 14:45 60.11906 11.11200 2887 ft 268 kts 136°
2026-05-04 14:45 60.10946 11.14516 3708 ft 284 kts 107°
2026-05-04 14:45 60.10869 11.18474 4655 ft 290 kts 75°
2026-05-04 14:45 60.11794 11.21996 5585 ft 287 kts 42°
2026-05-04 14:46 60.13436 11.24110 6472 ft 280 kts 11°
2026-05-04 14:46 60.15339 11.24661 7321 ft 277 kts 357°
2026-05-04 14:46 60.17266 11.24945 8223 ft 279 kts 358°
2026-05-04 14:46 60.19217 11.25229 9120 ft 283 kts 358°
2026-05-04 14:47 60.21191 11.25526 9930 ft 288 kts 358°
2026-05-04 14:47 60.23268 11.25830 10231 ft 311 kts 358°
2026-05-04 14:47 60.25487 11.26159 10703 ft 325 kts 358°
2026-05-04 14:47 60.27763 11.26519 11485 ft 330 kts 359°
2026-05-04 14:48 60.30065 11.26900 12263 ft 334 kts 359°
2026-05-04 14:48 60.32390 11.27288 13052 ft 337 kts 358°
2026-05-04 14:48 60.34736 11.27675 13784 ft 340 kts 358°
2026-05-04 14:48 60.37105 11.28063 14474 ft 343 kts 357°
2026-05-04 14:49 60.39495 11.28446 15170 ft 346 kts 356°
2026-05-04 14:49 60.41908 11.28824 15857 ft 350 kts 355°
2026-05-04 14:49 60.44350 11.29207 16521 ft 353 kts 354°
2026-05-04 14:49 60.46813 11.29598 17199 ft 357 kts 354°
2026-05-04 14:50 60.48458 11.29861 17640 ft 359 kts 353°
2026-05-04 14:50 60.50962 11.30265 18208 ft 363 kts 353°
2026-05-04 14:50 60.53491 11.30675 18804 ft 366 kts 353°
2026-05-04 14:50 60.56041 11.31087 19378 ft 369 kts 352°
2026-05-04 14:51 60.58614 11.31496 20036 ft 373 kts 353°
2026-05-04 14:51 60.61214 11.31910 20597 ft 377 kts 353°
2026-05-04 14:51 60.63840 11.32334 21142 ft 381 kts 352°
2026-05-04 14:51 60.66496 11.32767 21669 ft 385 kts 352°
2026-05-04 14:52 60.69175 11.33207 22199 ft 388 kts 352°
2026-05-04 14:52 60.71879 11.33654 22734 ft 392 kts 351°
2026-05-04 14:52 60.74612 11.34107 23248 ft 395 kts 351°
2026-05-04 14:52 60.77364 11.34559 23667 ft 398 kts 351°
2026-05-04 14:53 60.80137 11.35017 24108 ft 401 kts 351°
2026-05-04 14:53 60.82921 11.35479 24547 ft 403 kts 351°
2026-05-04 14:53 60.85720 11.35944 25067 ft 404 kts 351°
2026-05-04 14:53 60.88539 11.36406 25407 ft 409 kts 352°
2026-05-04 14:54 60.91391 11.36871 25770 ft 413 kts 352°
2026-05-04 14:54 60.94261 11.37346 26172 ft 415 kts 352°
2026-05-04 14:54 60.97150 11.37824 26581 ft 417 kts 352°
2026-05-04 14:54 61.00051 11.38302 27007 ft 419 kts 352°
2026-05-04 14:55 61.02966 11.38784 27406 ft 422 kts 352°
2026-05-04 14:55 61.05900 11.39271 27789 ft 424 kts 352°
2026-05-04 14:55 61.08854 11.39764 28193 ft 427 kts 352°
2026-05-04 14:55 61.11823 11.40263 28582 ft 429 kts 352°
2026-05-04 14:56 61.14812 11.40768 28976 ft 432 kts 352°
2026-05-04 14:56 61.17814 11.41275 29344 ft 434 kts 352°
2026-05-04 14:56 61.20835 11.41783 29708 ft 437 kts 352°
2026-05-04 14:56 61.23873 11.42293 29984 ft 439 kts 353°
2026-05-04 14:57 61.26929 11.42806 30232 ft 442 kts 353°
2026-05-04 14:57 61.30005 11.43323 30485 ft 445 kts 353°
2026-05-04 14:57 61.33095 11.43846 30724 ft 448 kts 353°
2026-05-04 14:57 61.36210 11.44377 30978 ft 451 kts 353°
2026-05-04 14:58 61.39345 11.44913 31246 ft 453 kts 353°
2026-05-04 14:58 61.42488 11.45457 31580 ft 453 kts 353°
2026-05-04 14:58 61.45636 11.46000 31941 ft 455 kts 354°
2026-05-04 14:58 61.48809 11.46541 32117 ft 460 kts 354°
2026-05-04 14:59 61.52004 11.47086 32402 ft 461 kts 354°
2026-05-04 14:59 61.55209 11.47632 32703 ft 463 kts 355°
2026-05-04 14:59 61.61632 11.48743 33364 ft 464 kts 355°
2026-05-04 15:00 61.64854 11.49304 33675 ft 465 kts 355°
2026-05-04 15:00 61.68074 11.49871 33946 ft 465 kts 355°
2026-05-04 15:00 61.71300 11.50443 34224 ft 465 kts 355°
2026-05-04 15:01 61.77747 11.51569 34819 ft 464 kts 357°
2026-05-04 15:01 61.80960 11.52128 35098 ft 463 kts 357°
2026-05-04 15:01 61.84169 11.52686 35374 ft 462 kts 357°
2026-05-04 15:01 61.87371 11.53248 35620 ft 461 kts 357°
2026-05-04 15:02 61.90567 11.53815 35845 ft 460 kts 358°
2026-05-04 15:02 61.93759 11.54383 36033 ft 460 kts 358°
2026-05-04 15:02 61.96949 11.54946 36274 ft 460 kts 357°
2026-05-04 15:02 62.00134 11.55508 36479 ft 460 kts 357°
2026-05-04 15:03 62.03322 11.56073 36644 ft 460 kts 357°
2026-05-04 15:03 62.06511 11.56635 36695 ft 460 kts 358°
2026-05-04 15:03 62.12878 11.57754 36689 ft 459 kts 358°
2026-05-04 15:04 62.19241 11.58881 36695 ft 459 kts 358°
2026-05-04 15:04 62.25602 11.60036 36694 ft 459 kts 358°
2026-05-04 15:05 62.31916 11.61188 36698 ft 459 kts 358°
2026-05-04 15:05 62.38273 11.62351 36719 ft 458 kts 359°
2026-05-04 15:06 62.44632 11.63510 36711 ft 459 kts 359°
2026-05-04 15:07 62.54181 11.65248 36704 ft 459 kts 359°
2026-05-04 15:07 62.60552 11.66427 36661 ft 460 kts 359°
2026-05-04 15:08 62.66925 11.67608 36695 ft 460 kts 359°
2026-05-04 15:08 62.73304 11.68786 36686 ft 460 kts 359°
2026-05-04 15:09 62.79685 11.69965 36685 ft 461 kts 359°
2026-05-04 15:09 62.86077 11.71162 36693 ft 461 kts 359°
2026-05-04 15:10 62.95658 11.72965 36737 ft 461 kts 360°
2026-05-04 15:11 63.05255 11.74787 36697 ft 462 kts 360°
2026-05-04 15:11 63.11664 11.76016 36690 ft 463 kts 360°
2026-05-04 15:12 63.18080 11.77250 36681 ft 463 kts 360°
2026-05-04 15:12 63.24503 11.78476 36681 ft 463 kts 360°
2026-05-04 15:13 63.30927 11.79726 36694 ft 464 kts
2026-05-04 15:13 63.37310 11.82315 36680 ft 473 kts 15°
2026-05-04 15:14 63.43526 11.87190 36661 ft 474 kts 15°
2026-05-04 15:14 63.49754 11.92074 36662 ft 474 kts 15°
2026-05-04 15:15 63.55988 11.96949 36701 ft 475 kts 15°
2026-05-04 15:15 63.62225 12.01857 36676 ft 475 kts 15°
2026-05-04 15:16 63.71577 12.09291 36673 ft 475 kts 15°
2026-05-04 15:17 63.80924 12.16788 36652 ft 475 kts 15°
2026-05-04 15:17 63.90272 12.24326 36663 ft 475 kts 15°
2026-05-04 15:18 63.96459 12.29330 36642 ft 475 kts 15°
2026-05-04 15:18 63.99570 12.31855 36859 ft 475 kts 15°
2026-05-04 15:19 64.05792 12.36924 36869 ft 475 kts 16°
2026-05-04 15:19 64.15118 12.44583 36829 ft 475 kts 16°
2026-05-04 15:20 64.21330 12.49722 36773 ft 475 kts 16°
2026-05-04 15:20 64.27543 12.54885 36714 ft 475 kts 16°
2026-05-04 15:21 64.33755 12.60056 36643 ft 475 kts 16°
2026-05-04 15:22 64.43074 12.67858 36627 ft 475 kts 16°
2026-05-04 15:22 64.52384 12.75747 36626 ft 475 kts 17°
2026-05-04 15:23 64.58585 12.81003 36609 ft 475 kts 16°
2026-05-04 15:23 64.64794 12.86292 36605 ft 475 kts 17°
2026-05-04 15:24 64.77201 12.96969 36619 ft 475 kts 17°
2026-05-04 15:25 64.83398 13.02344 36606 ft 475 kts 17°
2026-05-04 15:26 64.92687 13.10444 36596 ft 474 kts 17°
2026-05-04 15:26 65.01960 13.18591 36589 ft 474 kts 17°
2026-05-04 15:27 65.11228 13.26805 36607 ft 474 kts 18°
2026-05-04 15:28 65.20446 13.35022 36567 ft 473 kts 18°
2026-05-04 15:29 65.29702 13.43338 36556 ft 474 kts 18°
2026-05-04 15:30 65.51330 13.63001 36568 ft 475 kts 18°
2026-05-04 15:31 65.60593 13.71537 36573 ft 475 kts 18°
2026-05-04 15:32 65.76011 13.85908 36581 ft 475 kts 18°
2026-05-04 15:34 65.91409 14.00405 36564 ft 474 kts 19°
2026-05-04 15:34 65.99600 14.08200 36577 ft 474 kts 19°
2026-05-04 15:35 66.08812 14.17056 36570 ft 473 kts 19°
2026-05-04 15:36 66.18005 14.25954 36560 ft 473 kts 19°
2026-05-04 15:36 66.24136 14.31891 36575 ft 473 kts 19°
2026-05-04 15:37 66.30260 14.37885 36562 ft 473 kts 19°
2026-05-04 15:37 66.36382 14.43918 36556 ft 473 kts 19°
2026-05-04 15:38 66.42503 14.49967 36551 ft 473 kts 19°
2026-05-04 15:38 66.48629 14.56034 36549 ft 473 kts 19°
2026-05-04 15:39 66.54745 14.62149 36567 ft 473 kts 20°
2026-05-04 15:40 66.63910 14.71396 36557 ft 473 kts 20°
2026-05-04 15:40 66.70017 14.77564 36552 ft 473 kts 20°
2026-05-04 15:41 66.76108 14.83842 36548 ft 473 kts 21°
2026-05-04 15:41 66.82107 14.90708 36546 ft 474 kts 23°
2026-05-04 15:42 66.88059 14.97892 36558 ft 474 kts 24°
2026-05-04 15:42 66.94016 15.05048 36554 ft 473 kts 23°
2026-05-04 15:43 66.99986 15.12132 36550 ft 473 kts 23°
2026-05-04 15:43 67.05961 15.19214 36548 ft 473 kts 23°
2026-05-04 15:44 67.11929 15.26346 36548 ft 473 kts 23°
2026-05-04 15:44 67.17884 15.33539 36548 ft 473 kts 23°
2026-05-04 15:45 67.23840 15.40769 36549 ft 473 kts 23°
2026-05-04 15:45 67.29794 15.48030 36549 ft 473 kts 23°
2026-05-04 15:46 67.35709 15.55267 36549 ft 473 kts 23°
2026-05-04 15:46 67.41693 15.62648 36549 ft 473 kts 24°
2026-05-04 15:47 67.47641 15.70023 36564 ft 473 kts 24°
2026-05-04 15:47 67.53545 15.77376 36409 ft 473 kts 24°
2026-05-04 15:47 67.56512 15.81091 36158 ft 472 kts 24°
2026-05-04 15:48 67.59476 15.84807 35919 ft 472 kts 24°
2026-05-04 15:48 67.62436 15.88527 35679 ft 471 kts 24°
2026-05-04 15:48 67.68327 15.95968 35208 ft 468 kts 24°
2026-05-04 15:49 67.71289 15.99727 34972 ft 466 kts 24°
2026-05-04 15:49 67.74205 16.03439 34741 ft 464 kts 24°
2026-05-04 15:49 67.77103 16.07139 34528 ft 462 kts 24°
2026-05-04 15:49 67.79987 16.10822 34301 ft 459 kts 24°
2026-05-04 15:50 67.82858 16.14497 34070 ft 457 kts 24°
2026-05-04 15:50 67.85675 16.18118 33828 ft 456 kts 24°
2026-05-04 15:50 67.88566 16.21850 33605 ft 455 kts 24°
2026-05-04 15:50 67.91360 16.25472 33196 ft 452 kts 24°
2026-05-04 15:51 67.94222 16.29187 32702 ft 450 kts 24°
2026-05-04 15:51 67.97031 16.32836 32222 ft 448 kts 25°
2026-05-04 15:51 67.99825 16.36471 31741 ft 446 kts 25°
2026-05-04 15:51 68.02604 16.40100 31269 ft 444 kts 25°
2026-05-04 15:52 68.05368 16.43725 30815 ft 441 kts 25°
2026-05-04 15:52 68.08115 16.47346 30345 ft 439 kts 25°
2026-05-04 15:52 68.10808 16.50904 29903 ft 436 kts 25°
2026-05-04 15:52 68.13522 16.54498 29428 ft 433 kts 25°
2026-05-04 15:53 68.16209 16.58070 28980 ft 429 kts 26°
2026-05-04 15:53 68.18866 16.61602 28558 ft 423 kts 25°
2026-05-04 15:53 68.21527 16.65137 28136 ft 418 kts 26°
2026-05-04 15:53 68.24126 16.68597 27739 ft 414 kts 26°
2026-05-04 15:54 68.26690 16.72018 27341 ft 409 kts 26°
2026-05-04 15:54 68.29231 16.75415 26934 ft 406 kts 26°
2026-05-04 15:54 68.31745 16.78793 26538 ft 402 kts 26°
2026-05-04 15:54 68.34238 16.82158 26134 ft 399 kts 26°
2026-05-04 15:55 68.36712 16.85513 25728 ft 397 kts 26°
2026-05-04 15:55 68.39171 16.88851 25324 ft 394 kts 26°
2026-05-04 15:55 68.41614 16.92168 24901 ft 392 kts 26°
2026-05-04 15:55 68.44043 16.95472 24498 ft 389 kts 26°
2026-05-04 15:56 68.46450 16.98764 24080 ft 387 kts 27°
2026-05-04 15:56 68.48849 17.02057 23646 ft 385 kts 27°
2026-05-04 15:56 68.51228 17.05328 23224 ft 382 kts 27°
2026-05-04 15:56 68.53597 17.08592 22735 ft 380 kts 27°
2026-05-04 15:57 68.55942 17.11823 22315 ft 375 kts 27°
2026-05-04 15:57 68.58255 17.15015 21889 ft 370 kts 27°
2026-05-04 15:57 68.60543 17.18179 21472 ft 366 kts 27°
2026-05-04 15:57 68.62801 17.21310 21055 ft 362 kts 27°
2026-05-04 15:58 68.65032 17.24413 20639 ft 358 kts 27°
2026-05-04 15:58 68.67242 17.27498 20230 ft 355 kts 27°
2026-05-04 15:58 68.69431 17.30559 19824 ft 352 kts 27°
2026-05-04 15:58 68.71603 17.33598 19419 ft 349 kts 27°
2026-05-04 15:59 68.73753 17.36620 19021 ft 346 kts 27°
2026-05-04 15:59 68.75888 17.39630 18623 ft 343 kts 27°
2026-05-04 15:59 68.78008 17.42623 18225 ft 341 kts 27°
2026-05-04 15:59 68.80115 17.45597 17828 ft 339 kts 27°
2026-05-04 16:00 68.82206 17.48551 17403 ft 336 kts 27°
2026-05-04 16:00 68.84273 17.51475 17018 ft 332 kts 27°
2026-05-04 16:00 68.86320 17.54376 16634 ft 329 kts 27°
2026-05-04 16:00 68.88346 17.57255 16254 ft 325 kts 27°
2026-05-04 16:01 68.90350 17.60108 15876 ft 322 kts 27°
2026-05-04 16:01 68.92337 17.62949 15502 ft 320 kts 27°
2026-05-04 16:01 68.94309 17.65779 15137 ft 318 kts 27°
2026-05-04 16:01 68.96270 17.68602 14766 ft 317 kts 27°
2026-05-04 16:02 68.98224 17.71418 14402 ft 316 kts 27°
2026-05-04 16:02 69.00172 17.74232 14035 ft 315 kts 27°
2026-05-04 16:02 69.03966 17.80198 13346 ft 310 kts 39°
2026-05-04 16:03 69.05592 17.84101 12977 ft 307 kts 41°
2026-05-04 16:03 69.07204 17.87985 12614 ft 304 kts 40°
2026-05-04 16:03 69.08797 17.91836 12262 ft 301 kts 41°
2026-05-04 16:03 69.10373 17.95658 11909 ft 298 kts 40°
2026-05-04 16:04 69.11933 17.99452 11561 ft 296 kts 41°
2026-05-04 16:04 69.14986 18.06920 10874 ft 291 kts 41°
2026-05-04 16:04 69.16500 18.10647 10535 ft 289 kts 41°
2026-05-04 16:05 69.18010 18.14369 10196 ft 288 kts 41°
2026-05-04 16:05 69.19518 18.18090 9859 ft 289 kts 41°
2026-05-04 16:05 69.22556 18.25595 9260 ft 287 kts 41°
2026-05-04 16:06 69.24058 18.29315 8882 ft 285 kts 41°
2026-05-04 16:06 69.27955 18.38983 7915 ft 274 kts 41°
2026-05-04 16:07 69.29788 18.43548 7822 ft 258 kts 41°
2026-05-04 16:07 69.33734 18.53448 7042 ft 251 kts 42°
2026-05-04 16:08 69.35034 18.56720 6776 ft 248 kts 42°
2026-05-04 16:08 69.38675 18.65890 6523 ft 220 kts 41°
2026-05-04 16:09 69.40840 18.71370 6339 ft 201 kts 41°
2026-05-04 16:09 69.43305 18.75330 6042 ft 212 kts 15°
2026-05-04 16:10 69.46162 18.77273 5417 ft 210 kts 13°
2026-05-04 16:11 69.50391 18.80035 4718 ft 206 kts 13°
2026-05-04 16:11 69.51794 18.80954 4356 ft 207 kts 13°
2026-05-04 16:12 69.55890 18.83646 3246 ft 194 kts 14°
2026-05-04 16:12 69.59523 18.86043 2220 ft 166 kts 14°
2026-05-04 16:13 69.61665 18.87460 1624 ft 149 kts 14°
2026-05-04 16:13 69.63514 18.88627 1021 ft 127 kts 14°
2026-05-04 16:14 69.65194 18.89757 610 ft 123 kts 15°
2026-05-04 16:14 69.66861 18.90897 190 ft 123 kts 15°
2026-05-04 16:15 69.68656 18.92101 23 ft 25 kts 13°
2026-05-04 16:16 69.68775 18.91855 20 ft 11 kts 283°
2026-05-04 16:16 69.68579 18.91587 28 ft 12 kts 193°
2026-05-04 16:17 69.68425 18.91503 28 ft 15 kts 182°
2026-05-04 16:18 69.68109 18.91354 33 ft 12 kts 193°
2026-05-04 16:18 69.68035 18.91304 34 ft 10 kts 194°
2026-05-04 16:19 69.68006 18.91013 37 ft 4 kts 283°
2026-05-04 16:19 69.68012 18.90941 37 ft 0 kts 283°